Zurück zum Katalog

COSMOS 2199

AktivMilitärPO
NORAD 22036·PAYLOAD·🇷🇺 Russia

Gestartet Jul 13, 1992 von Plesetsk Cosmodrome

Loading…

Nächste Überflüge (nächste 24 Stunden)

TLE

AktuellSource: Space-Track

Epoche: Sep 14, 2026, 08:54 UTC

1 22036U 92042C   26257.37091314  .00000007  00000-0 -18361-4 0  9991
2 22036  82.5977 223.9645 0012407 127.8904  25.2199 12.61053929572470

Verfolge COSMOS 2199 in Echtzeit mit AllMySat

Download on the App Store